Benson, MN

12:31 PM CDT on July 24, 2016 (GMT -0500)
Benson Municipal

Weather History for KBBB - February, 2014

Change the Weather History Date:

Tuesday, February 11, 2014

  Actual Average Record
Temperature  
Mean Temperature 0 °F -  
Max Temperature 19 °F 22 °F 55 °F (2005)
Min Temperature -20 °F 4 °F -27 °F (1981)
Degree Days  
Heating Degree Days 66    
Moisture  
Dew Point -1 °F    
Average Humidity 80    
Maximum Humidity 93    
Minimum Humidity 68    
Precipitation  
Precipitation 0.00 in - - ()
Sea Level Pressure  
Sea Level Pressure 30.12 in    
Wind  
Wind Speed 9 mph (South)    
Max Wind Speed 25 mph    
Max Gust Speed 30 mph    
Visibility 9 miles    
Events Snow    
Averages and records for this station are not official NWS values.
T = Trace of Precipitation, MM = Missing Value Source: NWS Daily Summary

Daily Weather History Graph

Daily Weather History Graph

Search for Another Location

Airport or City:

Trip Planner

Search our weather history database for the weather conditions in past years. The results will help you decide how hot, cold, wet, or windy it might be!

Date:

Astronomy

Feb. 11, 2014 Rise Set
Actual Time 7:29 AM CST 5:44 PM CST
Civil Twilight 6:59 AM CST 6:15 PM CST
Nautical Twilight 6:24 AM CST 6:49 PM CST
Astronomical Twilight 5:50 AM CST 7:24 PM CST
Moon 3:02 PM CST (2/11) 5:11 AM CST (2/11)
Length of Visible Light 11h 15m
Length of Day
10h 14m
Waxing Gibbous, 91% of the Moon is Illuminated
Feb 11
Waxing Gibbous
Feb 14
Full
Feb 22
Last Quarter
Mar 1
New
Mar 8
First Quarter

Hourly Weather History & Observations

Time (CST) Temp. Windchill Dew Point Humidity Pressure Visibility Wind Dir Wind Speed Gust Speed Precip Events Conditions
12:13 AM -16.6 °F - -20.2 °F 84% 30.40 in 10.0 mi Calm Calm - N/A   Clear
12:32 AM -16.6 °F - -22.0 °F 76% 30.40 in 10.0 mi Calm Calm - N/A   Clear
12:52 AM -16.6 °F - -20.2 °F 84% 30.39 in 10.0 mi Calm Calm - N/A   Clear
1:13 AM -18.4 °F - -23.8 °F 76% 30.38 in 10.0 mi Calm Calm - N/A   Clear
1:32 AM -20.2 °F - -25.6 °F 76% 30.38 in 10.0 mi Calm Calm - N/A   Clear
1:52 AM -18.4 °F -28.9 °F -25.6 °F 70% 30.38 in 10.0 mi South 3.5 mph - N/A   Clear
2:13 AM -18.4 °F -28.9 °F -25.6 °F 70% 30.37 in 10.0 mi South 3.5 mph - N/A   Clear
2:32 AM -16.6 °F - -23.8 °F 70% 30.37 in 7.0 mi Calm Calm - N/A   Clear
2:53 AM -20.2 °F - -25.6 °F 76% 30.36 in 1.8 mi Calm Calm - N/A   Haze
3:12 AM -20.2 °F -33.5 °F -25.6 °F 76% 30.35 in 1.8 mi SE 4.6 mph - N/A   Haze
3:32 AM -18.4 °F -28.9 °F -25.6 °F 70% 30.35 in 1.2 mi SSE 3.5 mph - N/A   Haze
3:53 AM -20.2 °F -30.9 °F -25.6 °F 76% 30.33 in 2.5 mi SSE 3.5 mph - N/A   Haze
4:12 AM -14.8 °F -29.1 °F -18.4 °F 84% 30.32 in 1.2 mi South 5.8 mph - N/A   Overcast
4:32 AM -11.2 °F -24.8 °F -16.6 °F 77% 30.32 in 10.0 mi South 5.8 mph - N/A   Scattered Clouds
4:53 AM -9.4 °F -24.3 °F -14.8 °F 77% 30.31 in 7.0 mi South 6.9 mph - N/A   Clear
5:12 AM -11.2 °F -27.8 °F -14.8 °F 84% 30.30 in 10.0 mi South 8.1 mph - N/A   Clear
5:32 AM -9.4 °F -25.6 °F -14.8 °F 77% 30.29 in 10.0 mi South 8.1 mph - N/A   Clear
5:53 AM -9.4 °F -25.6 °F -14.8 °F 77% 30.28 in 10.0 mi South 8.1 mph - N/A   Clear
6:12 AM -9.4 °F -25.6 °F -14.8 °F 77% 30.28 in 10.0 mi South 8.1 mph - N/A   Clear
6:33 AM -11.2 °F -27.8 °F -14.8 °F 84% 30.27 in 10.0 mi South 8.1 mph - N/A   Clear
6:53 AM -11.2 °F -27.8 °F -14.8 °F 84% 30.26 in 10.0 mi South 8.1 mph - N/A   Clear
7:12 AM -9.4 °F -27.9 °F -14.8 °F 77% 30.24 in 10.0 mi South 10.4 mph - N/A   Clear
7:33 AM -9.4 °F -27.9 °F -14.8 °F 77% 30.23 in 10.0 mi South 10.4 mph - N/A   Clear
7:53 AM -9.4 °F -26.8 °F -14.8 °F 77% 30.23 in 10.0 mi South 9.2 mph - N/A   Clear
8:12 AM -7.6 °F -25.7 °F -11.2 °F 84% 30.23 in 10.0 mi South 10.4 mph - N/A   Clear
8:33 AM -5.8 °F -23.4 °F -11.2 °F 77% 30.22 in 10.0 mi South 10.4 mph - N/A   Scattered Clouds
8:52 AM -5.8 °F -23.4 °F -9.4 °F 84% 30.21 in 10.0 mi South 10.4 mph - N/A   Mostly Cloudy
9:12 AM -2.2 °F -18.9 °F -7.6 °F 78% 30.20 in 10.0 mi South 10.4 mph - N/A   Overcast
9:33 AM -0.4 °F -17.6 °F -5.8 °F 78% 30.19 in 10.0 mi South 11.5 mph - N/A Snow Light Snow
9:52 AM 1.4 °F -17.6 °F -4.0 °F 78% 30.17 in 10.0 mi South 15.0 mph - N/A Snow Light Snow
10:12 AM 1.4 °F -18.2 °F -2.2 °F 85% 30.17 in 10.0 mi South 16.1 mph 20.7 mph N/A Snow Light Snow
10:33 AM 3.2 °F -16.5 °F -2.2 °F 78% 30.16 in 10.0 mi SSW 17.3 mph 23.0 mph N/A   Overcast
10:52 AM 5.0 °F -12.3 °F -0.4 °F 78% 30.15 in 10.0 mi South 13.8 mph 21.9 mph N/A   Overcast
11:12 AM 6.8 °F -12.4 °F 1.4 °F 79% 30.14 in 10.0 mi South 18.4 mph 24.2 mph N/A   Overcast
11:33 AM 8.6 °F -11.0 °F 1.4 °F 73% 30.13 in 10.0 mi SSW 20.7 mph 24.2 mph N/A   Mostly Cloudy
11:52 AM 10.4 °F -7.2 °F 3.2 °F 73% 30.11 in 10.0 mi SSW 17.3 mph 24.2 mph N/A   Scattered Clouds
12:12 PM 12.2 °F -5.3 °F 5.0 °F 73% 30.09 in 10.0 mi SSW 18.4 mph 27.6 mph N/A   Mostly Cloudy
12:33 PM 14.0 °F -3.4 °F 6.8 °F 73% 30.07 in 10.0 mi SSW 19.6 mph 24.2 mph N/A   Overcast
12:52 PM 15.8 °F -2.3 °F 6.8 °F 68% 30.06 in 10.0 mi SSW 23.0 mph 27.6 mph N/A   Overcast
1:13 PM 15.8 °F -2.3 °F 8.6 °F 73% 30.04 in 10.0 mi SSW 23.0 mph 29.9 mph N/A   Overcast
1:33 PM 17.6 °F 0.9 °F 8.6 °F 68% 30.03 in 10.0 mi SSW 20.7 mph 26.5 mph N/A   Overcast
1:52 PM 17.6 °F -0.6 °F 10.4 °F 73% 30.00 in 10.0 mi SSW 25.3 mph 29.9 mph N/A   Overcast
2:13 PM 17.6 °F 1.3 °F 10.4 °F 73% 30.00 in 10.0 mi South 19.6 mph 27.6 mph N/A   Overcast
2:32 PM 17.6 °F 1.7 °F 10.4 °F 73% 29.99 in 10.0 mi SSW 18.4 mph 24.2 mph N/A   Overcast
2:52 PM 17.6 °F 2.2 °F 10.4 °F 73% 29.98 in 10.0 mi SSW 17.3 mph 25.3 mph N/A   Overcast
3:13 PM 17.6 °F -0.3 °F 12.2 °F 79% 29.96 in 10.0 mi South 24.2 mph 29.9 mph N/A   Overcast
3:32 PM 17.6 °F 0.9 °F 12.2 °F 79% 29.96 in 10.0 mi SSW 20.7 mph 29.9 mph N/A   Overcast
3:52 PM 19.4 °F 4.1 °F 12.2 °F 74% 29.98 in 10.0 mi SSW 18.4 mph 26.5 mph N/A   Overcast
4:13 PM 19.4 °F 3.6 °F 12.2 °F 74% 29.96 in 10.0 mi SSW 19.6 mph 24.2 mph N/A   Overcast
4:32 PM 17.6 °F 1.3 °F 12.2 °F 79% 29.94 in 10.0 mi South 19.6 mph 27.6 mph N/A   Overcast
4:52 PM 19.4 °F 4.5 °F 14.0 °F 80% 29.94 in 10.0 mi SSW 17.3 mph - N/A   Overcast
5:13 PM 19.4 °F 4.1 °F 14.0 °F 80% 29.94 in 10.0 mi SSW 18.4 mph 23.0 mph N/A   Overcast
5:32 PM 17.6 °F 0.9 °F 14.0 °F 86% 29.93 in 7.0 mi SSW 20.7 mph - N/A   Overcast
5:53 PM 17.6 °F 1.7 °F 14.0 °F 86% 29.93 in 10.0 mi SSW 18.4 mph 24.2 mph N/A   Overcast
6:12 PM 17.6 °F 0.9 °F 14.0 °F 86% 29.93 in 10.0 mi SSW 20.7 mph 24.2 mph N/A   Overcast
6:32 PM 17.6 °F 2.7 °F 15.8 °F 93% 29.94 in 7.0 mi SSW 16.1 mph - N/A   Overcast
6:53 PM 17.6 °F 1.7 °F 15.8 °F 93% 29.94 in 7.0 mi SSW 18.4 mph - N/A   Overcast
7:12 PM 19.4 °F 5.5 °F 15.8 °F 86% 29.94 in 10.0 mi SSW 15.0 mph - N/A   Overcast
7:32 PM 19.4 °F 7.2 °F 15.8 °F 86% 29.94 in 7.0 mi South 11.5 mph - N/A Snow Light Snow
7:53 PM 19.4 °F 7.2 °F 15.8 °F 86% 29.93 in 10.0 mi South 11.5 mph - N/A Snow Light Snow
8:12 PM 19.4 °F 5.5 °F 15.8 °F 86% 29.93 in 10.0 mi South 15.0 mph - N/A Snow Light Snow
8:32 PM 19.4 °F 6.6 °F 15.8 °F 86% 29.93 in 10.0 mi SSW 12.7 mph - N/A   Overcast
8:53 PM 19.4 °F 6.0 °F 15.8 °F 86% 29.93 in 10.0 mi SSW 13.8 mph - N/A   Overcast
9:12 PM 19.4 °F 7.2 °F 15.8 °F 86% 29.93 in 10.0 mi South 11.5 mph - N/A Snow Light Snow
9:32 PM 19.4 °F 6.6 °F 15.8 °F 86% 29.93 in 10.0 mi SSW 12.7 mph - N/A Snow Light Snow
9:53 PM 19.4 °F 6.6 °F 15.8 °F 86% 29.93 in 10.0 mi South 12.7 mph - N/A Snow Light Snow
10:12 PM 19.4 °F 6.6 °F 15.8 °F 86% 29.93 in 10.0 mi South 12.7 mph - N/A   Overcast
10:33 PM 19.4 °F 6.6 °F 15.8 °F 86% 29.93 in 10.0 mi South 12.7 mph - N/A   Overcast
10:53 PM 19.4 °F 7.2 °F 15.8 °F 86% 29.95 in 10.0 mi SSW 11.5 mph - N/A   Overcast
11:12 PM 19.4 °F 7.9 °F 15.8 °F 86% 29.95 in 10.0 mi SSW 10.4 mph - N/A   Overcast
11:32 PM 19.4 °F 7.9 °F 15.8 °F 86% 29.94 in 10.0 mi SSW 10.4 mph - N/A   Overcast
11:53 PM 19.4 °F 7.9 °F 15.8 °F 86% 29.94 in 10.0 mi SSW 10.4 mph - N/A   Overcast